Regional Weather Roundup
Issued by NWS

Home | Current Version | Previous Version | Graphics & Text | Print | Product List | Glossary On
Versions: 1 2 3 4 5 6 7 8 9 10 11 12 13 14 15 16 17 18 19 20 21 22 23 24 25 26 27 28 29 30 31 32 33 34 35 36 37 38 39 40 41 42 43 44 45 46 47 48 49 50
000
ASUS43 KLOT 160000
RWRIL

ILLINOIS REGIONAL WEATHER ROUNDUP
NATIONAL WEATHER SERVICE CHICAGO/ROMEOVILLE IL
700 PM CDT MON SEP 15 2014

NOTE: "FAIR" INDICATES FEW OR NO CLOUDS BELOW 12,000 FEET WITH NO
SIGNIFICANT WEATHER AND/OR OBSTRUCTIONS TO VISIBILITY.

* THESE STATIONS ARE NOT UNDER NWS QUALITY CONTROL. THEY ALSO MAY NOT
  REPORT WEATHER SUCH AS PRECIPITATION OR FOG.

ILZ001-002-007-009-015-016-024-160100-
NORTHWEST ILLINOIS

CITY           SKY/WX    TMP DP  RH WIND       PRES   REMARKS
MOLINE         CLOUDY    58  49  72 N9        30.16R
6HR MIN TEMP:  58; 6HR MAX TEMP:  69; 6HR PCP: TRACE;

STERLING*      CLOUDY    55  52  88 N6        30.15R
$$

ILZ003-004-008-010-011-017-018-160100-
NORTH CENTRAL ILLINOIS

CITY           SKY/WX    TMP DP  RH WIND       PRES   REMARKS
ROCKFORD       NOT AVBL
FREEPORT*      CLOUDY    52  49  89 N5        30.18R
ROCHELLE*      CLOUDY    54  52  93 N6        30.14S
$$

ILZ005-006-012>014-019>023-160100-
NORTHEAST ILLINOIS

CITY           SKY/WX    TMP DP  RH WIND       PRES   REMARKS
CHICAGO-OHARE  CLOUDY    57  53  86 NE8       30.12R
6HR MIN TEMP:  57; 6HR MAX TEMP:  62; 6HR PCP: TRACE;

CHICAGO-MIDWAY CLOUDY    60  54  80 NW7       30.11S
6HR MIN TEMP:  58; 6HR MAX TEMP:  62; 6HR PCP: TRACE;

AURORA         MOCLDY    57  52  83 NE5       30.13R
6HR MIN TEMP:  57; 6HR MAX TEMP:  58; 6HR PCP: TRACE;

LANSING*       CLOUDY    55  53  95 CALM      30.11F
WAUKEGAN       CLOUDY    53  49  86 N7        30.12S
6HR MIN TEMP:  53; 6HR MAX TEMP:  62; 6HR PCP:  0.01;

DUPAGE AIRPORT CLOUDY    56  52  86 N6        30.11S
6HR MIN TEMP:  56; 6HR MAX TEMP:  59; 6HR PCP: TRACE;

WHEELING       CLOUDY    57  52  83 N9        30.14R
6HR MIN TEMP:  57; 6HR MAX TEMP:  62; 6HR PCP: TRACE;

NORTHERLY ISL    N/A     58  53  84 NW9         N/A
$$

LMZ740>746-160100-
SOUTHERN LAKE MICHIGAN

STATION/POSITION SKY/WX   TEMP    WIND        PRES    VSBY  WAVE
                          AIR SEA DIR/SP/G                  HT/PER
                          (F)     (DEG/KT/KT) (MB)    (MI)  (FT/S)
SOUTHERN BUOY              56 64  360/ 16/ 17 1019.3R         3/ 4
WAUKEGAN HARBOR            55     360/ 12/ 19   N/A
HARRISON CRIB              58     300/  5/  6   N/A
BURNHAM HARBOR             59     330/ 11       N/A
CALUMET HARBOR             57     210/  3/  5 1018.2R
MICHIGAN CITY              56     180/  2/  3   N/A
MICHIGAN CITY 6N           60 64  350/ 10/ 12   N/A           1/ 3
ST. JOSEPH                 61 66  310/ 10/ 14   N/A           2/ 4
$$

ILZ025>027-034>036-040-047-049-050-058-095>099-160100-
WEST-CENTRAL ILLINOIS

CITY           SKY/WX    TMP DP  RH WIND       PRES   REMARKS
QUINCY         CLOUDY    63  59  87 NW3       30.12R
GALESBURG*     CLOUDY    57  53  88 N13       30.14R
MACOMB*        CLOUDY    60  56  85 N13       30.15R
$$

ILZ028>032-037-038-041>044-048-051>054-059>061-160100-
CENTRAL ILLINOIS

CITY           SKY/WX    TMP DP  RH WIND       PRES   REMARKS
DECATUR        CLOUDY    60  59  96 NW8       30.10R
PEORIA         MOCLDY    60  56  86 NE5       30.12R
6HR MIN TEMP:  59; 6HR MAX TEMP:  61; 6HR PCP:  0.02;

SPRINGFIELD    CLOUDY    61  58  90 N8        30.12R
6HR MIN TEMP:  58; 6HR MAX TEMP:  62; 6HR PCP:  0.09;

TAYLORVILLE    NOT AVBL
$$

ILZ033-039-045-046-055>057-062-063-160100-
EAST-CENTRAL ILLINOIS

CITY           SKY/WX    TMP DP  RH WIND       PRES   REMARKS
CHAMPAIGN      LGT RAIN  58  58 100 NW5       30.09R VSB 3/4
MATTOON        LGT RAIN  59  57  94 CALM      30.07R FOG
$$

ILZ079-100>102-160100-
SOUTHWEST ILLINOIS

CITY           SKY/WX    TMP DP  RH WIND       PRES   REMARKS
BELLEVILLE     DRIZZLE   70  69  99 W12       30.06R
CAHOKIA*       CLOUDY    70  66  87 N9        30.07R
SPARTA*        CLOUDY    69  68  96 CALM      30.07S
$$

ILZ064>066-069>071-074>076-080>082-084>086-088>090-092>094-160100-
SOUTH-CENTRAL ILLINOIS

CITY           SKY/WX    TMP DP  RH WIND       PRES   REMARKS
CARBONDALE     CLOUDY    73  64  73 S3        30.05S
6HR MIN TEMP:  72; 6HR MAX TEMP:  77;

MT. VERNON     CLOUDY    66  63  88 CALM      30.06F
SALEM*         DRIZZLE   68  66  93 S5        30.06R
$$

ILZ067-068-072-073-078-083-087-091-160100-
SOUTHEAST ILLINOIS

CITY           SKY/WX    TMP DP  RH WIND       PRES   REMARKS
LAWRENCEVILLE  CLOUDY    66  59  78 SE6       30.05F
HARRISBURG*    MOCLDY    72  63  73 S3        30.06F
ROBINSON*      LGT RAIN  62  61  96 SE5       30.06F
$$

ABBREVIATIONS USED IN REMARKS
   TC - TEMPERATURE IN CELSIUS
  WCI - WIND CHILL INDEX
   HX - HEAT INDEX
  VSB - VISIBILITY
$$




USA.gov is the U.S. government's official web portal to all federal, state and local government web resources and services.